Location: Assche-ter-Heiden
(50.9174°N, 4.1574°E)
Time: 13:51:19
(UTC+00:00)

Okean O Rocket - Pass Details

Date: 20 January 2020
Orbit: 623 x 645 km, 98.2° (Epoch: 16 February)

Event Time Altitude Azimuth Distance (km) Brightness Sun altitude
Rises 06:07:00 0° 10° (N) 2,971 5.0 -13.6°
Reaches altitude 10° 06:09:16 10° 6° (N) 2,055 4.1 -13.3°
Maximum altitude 06:13:35 51° 291° (WNW) 819 1.8 -12.6°
Drops below altitude 10° 06:17:53 10° 216° (SW) 2,032 4.0 -12.0°
Sets 06:20:07 0° 211° (SSW) 2,934 4.9 -11.6°
